Temperature
4 4 4 4 4 4 4 4 4 4 4 4 4 4 4 5 5 5 4 4 4 4 4 4 4 3 3 3 3 3 3 3 2 3 3 3 3 3 3 3 3 3 3
4 3 3 3 3 4 4 4 4 4 4 4 4 4 4 4 4 4 4 4 4 3 3 3 3 3 3 2 2 3 2 2 2 2 2 2 2 2 2 2 2 2 2
3 3 3 3 3 3 3 3 3 3 3 3 3 3 3 3 3 3 3 3 3 3 2 2 2 2 2 2 2 2 2 2 2 2 2 2 2 2 1 2 2 2 1
3 3 3 3 2 2 2 2 2 3 3 3 3 3 2 2 2 2 2 2 2 2 2 2 1 1 1 1 1 1 1 1 1 1 1 1 1 1 1 1 1 1 1
2 2 2 2 2 2 2 2 2 2 2 2 2 2 2 2 2 2 1 1 1 1 1 1 1 1 1 1 1 1 1 1 1 1 0 0 0 0 0 0 -0 -0 -0
2 2 2 2 2 2 2 2 2 2 1 1 1 1 1 1 1 1 1 1 1 1 1 0 0 0 0 0 0 0 0 0 0 -0 -0 -0 -0 -0 -1 -1 -1 -1 -1
2 1 1 1 1 1 1 1 1 1 1 1 1 1 1 1 0 0 0 0 0 0 0 -0 -0 -0 -0 -0 -0 -0 -1 -1 -1 -1 -1 -1 -1 -1 -1 -1 -1 -1 -1
1 1 1 1 1 1 1 1 1 0 0 0 0 0 0 0 -0 -0 -0 -0 -0 -0 -0 -1 -1 -1 -1 -1 -1 -1 -1 -1 -1 -1 -1 -2 -2 -2 -2 -2 -2 -2 -2
1 1 1 1 0 0 0 0 0 0 -0 -0 -0 -0 -0 -0 -1 -1 -1 -1 -1 -1 -1 -1 -1 -1 -1 -1 -1 -2 -1 -1 -2 -2 -2 -2 -2 -2 -2 -2 -2 -3 -3
1 1 0 0 -0 -0 -0 -0 -0 -0 -1 -1 -1 -1 -1 -1 -1 -1 -1 -1 -1 -1 -1 -1 -2 -2 -2 -2 -2 -2 -2 -2 -2 -2 -2 -2 -2 -2 -3 -3 -3 -3 -3
0 0 -0 -0 -0 -1 -1 -1 -1 -1 -1 -1 -1 -1 -1 -1 -2 -2 -2 -2 -2 -2 -2 -2 -2 -2 -2 -3 -3 -3 -3 -3 -3 -3 -3 -3 -3 -3 -3 -3 -3 -3 -3
-0 -0 -1 -1 -1 -1 -1 -1 -1 -1 -2 -2 -2 -2 -2 -2 -2 -2 -3 -3 -3 -3 -3 -3 -3 -3 -3 -3 -3 -3 -4 -4 -4 -4 -4 -4 -4 -4 -4 -4 -4 -4 -4
-0 -1 -1 -1 -1 -2 -2 -2 -2 -2 -2 -2 -2 -2 -2 -2 -3 -3 -3 -3 -3 -4 -4 -4 -4 -4 -4 -4 -4 -4 -4 -4 -4 -4 -4 -4 -4 -4 -4 -4 -4 -4 -4
-1 -1 -1 -1 -2 -2 -2 -2 -3 -3 -3 -3 -3 -3 -3 -3 -3 -3 -3 -4 -4 -4 -4 -4 -4 -4 -4 -4 -4 -4 -4 -5 -5 -5 -5 -5 -5 -5 -5 -5 -5 -5 -5
-1 -2 -2 -2 -2 -3 -3 -3 -3 -3 -3 -4 -4 -4 -4 -3 -4 -4 -4 -4 -4 -4 -5 -5 -5 -5 -5 -5 -5 -5 -5 -5 -5 -5 -6 -6 -6 -6 -6 -6 -6 -6 -6
-2 -2 -2 -3 -3 -3 -3 -3 -3 -4 -4 -4 -4 -4 -4 -4 -4 -5 -5 -5 -5 -5 -5 -5 -5 -5 -6 -6 -6 -5 -5 -5 -6 -6 -6 -6 -6 -6 -6 -6 -6 -6 -6
-2 -3 -3 -3 -3 -3 -4 -4 -4 -4 -4 -4 -4 -5 -5 -5 -5 -5 -5 -5 -5 -6 -6 -6 -6 -6 -6 -6 -6 -6 -6 -6 -6 -6 -7 -7 -7 -7 -7 -7 -7 -7 -7
-3 -3 -3 -3 -4 -4 -4 -4 -4 -5 -5 -5 -5 -5 -5 -5 -5 -5 -6 -6 -6 -6 -6 -6 -6 -6 -6 -7 -7 -7 -7 -7 -7 -7 -7 -7 -7 -7 -7 -7 -7 -7 -7
-3 -3 -4 -4 -4 -4 -4 -5 -5 -5 -5 -5 -5 -5 -5 -6 -6 -6 -6 -6 -6 -6 -7 -7 -7 -7 -7 -7 -7 -7 -7 -7 -7 -7 -7 -7 -7 -7 -7 -7 -7 -7 -7
-3 -4 -4 -4 -4 -5 -5 -5 -5 -5 -6 -6 -6 -6 -6 -6 -6 -6 -6 -6 -7 -7 -7 -7 -7 -7 -7 -7 -7 -7 -7 -7 -7 -7 -7 -8 -8 -8 -7 -7 -7 -7 -7
-4 -4 -4 -5 -5 -5 -5 -5 -6 -6 -6 -6 -6 -6 -7 -7 -7 -7 -7 -7 -7 -7 -7 -7 -7 -7 -7 -7 -7 -7 -7 -7 -7 -8 -8 -8 -8 -8 -8 -8 -8 -8 -8
-4 -4 -5 -5 -5 -5 -5 -6 -6 -6 -6 -6 -6 -7 -7 -7 -7 -7 -7 -7 -7 -7 -7 -8 -8 -8 -8 -8 -8 -8 -8 -8 -8 -8 -8 -8 -8 -8 -8 -8 -8 -8 -8
-4 -5 -5 -5 -5 -5 -6 -6 -6 -6 -6 -7 -7 -7 -7 -7 -7 -7 -7 -7 -7 -7 -8 -8 -8 -8 -8 -8 -8 -8 -8 -8 -8 -8 -8 -8 -8 -8 -8 -8 -8 -8 -8
-5 -5 -5 -5 -6 -6 -6 -6 -6 -6 -7 -7 -7 -7 -7 -7 -7 -7 -7 -8 -8 -8 -8 -8 -8 -8 -8 -8 -8 -8 -8 -8 -8 -8 -8 -8 -8 -8 -9 -9 -9 -9 -8
-5 -5 -6 -6 -6 -6 -6 -6 -7 -7 -7 -7 -7 -8 -8 -8 -8 -8 -8 -8 -8 -8 -8 -8 -8 -8 -8 -8 -8 -8 -8 -8 -8 -8 -8 -8 -8 -9 -9 -9 -9 -9 -9
-6 -6 -6 -6 -6 -7 -7 -7 -7 -7 -7 -8 -8 -8 -8 -8 -8 -8 -8 -8 -8 -8 -8 -8 -8 -8 -8 -8 -8 -8 -8 -8 -8 -8 -9 -9 -9 -9 -9 -9 -9 -9 -9
Wind_Speed
2 2 2 1 2 2 2 1 1 1 1 1 1 1 1 1 1 0 1 1 1 2 2 2 2 2 2 2 2 2 2 3 5 4 3 3 3 4 5 6 7 7 7
2 2 2 1 2 2 1 1 2 1 1 1 1 1 1 1 1 1 1 1 1 2 2 2 2 2 2 2 2 2 3 3 3 5 4 3 4 4 4 4 6 6 6
2 2 2 2 1 1 1 1 2 1 1 1 1 1 1 1 1 1 1 1 1 2 2 3 3 2 3 2 3 3 3 3 3 4 5 4 4 4 4 4 4 4 6
2 2 2 2 1 1 1 1 1 1 1 1 0 0 0 1 1 1 1 1 2 2 2 3 3 4 4 4 4 4 3 3 3 4 5 4 4 4 3 3 4 3 4
2 2 2 1 2 2 1 1 1 0 0 0 0 1 1 1 1 1 2 2 2 2 3 3 4 4 5 5 5 4 4 4 4 4 5 4 4 3 4 3 4 4 4
2 1 2 1 1 1 1 1 0 0 1 1 1 1 1 1 2 4 3 2 2 2 4 4 4 5 6 7 8 8 7 6 5 5 5 6 6 4 3 4 4 4 4
2 2 2 2 1 1 1 1 1 1 1 1 1 1 1 2 3 4 4 3 3 3 4 4 5 5 5 4 6 8 8 10 9 6 6 6 6 5 4 5 5 6 6
2 2 2 2 1 1 1 1 1 1 1 2 2 2 2 3 4 5 5 3 3 4 4 5 5 5 5 5 5 5 6 6 7 6 6 6 6 5 5 5 6 6 5
3 2 2 2 2 1 1 2 1 1 2 2 2 2 3 3 5 5 5 2 3 3 4 4 5 5 7 8 5 5 6 6 8 9 9 9 10 10 7 3 3 5 6
3 2 2 2 2 2 2 2 1 2 2 2 2 3 3 3 4 5 5 2 3 3 3 4 6 7 8 8 5 5 7 6 5 5 6 7 6 7 8 5 4 5 5
2 2 2 2 2 2 2 2 2 2 2 2 3 3 3 3 4 6 5 3 3 3 4 3 4 8 9 9 8 6 8 7 5 4 4 4 4 4 4 4 4 4 5
3 2 2 2 2 2 2 2 2 1 2 2 3 3 3 3 4 6 7 6 6 4 4 4 5 9 10 10 8 8 10 8 3 3 4 4 4 4 3 3 4 5 5
3 3 3 2 2 2 2 2 2 2 2 2 2 3 3 2 4 7 7 8 8 5 4 8 9 10 9 7 8 10 7 3 3 3 4 4 3 3 3 3 3 4 5
3 3 3 3 2 2 2 2 2 3 3 3 3 3 3 3 3 3 3 4 6 6 5 7 9 9 7 7 6 5 3 3 4 4 3 3 3 3 3 3 3 3 4
3 3 3 3 3 3 3 3 3 3 4 4 3 3 3 4 5 7 5 4 3 4 4 3 3 3 4 4 4 4 3 3 4 3 3 3 3 3 4 3 3 3 4
3 3 3 3 3 3 3 3 5 5 6 7 7 7 6 7 9 9 9 10 9 8 5 3 4 4 4 4 4 4 4 4 4 3 3 4 4 4 4 3 3 4 4
4 4 3 3 3 3 3 3 3 4 7 8 8 9 9 9 9 9 9 9 9 8 4 4 4 4 5 4 4 4 4 4 3 3 4 4 4 4 4 4 4 4 4
4 4 4 3 4 4 4 4 3 3 3 4 6 8 9 9 9 9 8 7 5 4 3 4 5 5 4 4 4 4 5 4 4 4 4 4 4 4 4 4 4 4 4
4 3 3 3 3 3 3 3 3 4 4 4 3 4 7 8 8 8 7 4 4 4 4 4 4 5 5 4 4 4 5 5 4 4 4 4 4 4 4 5 4 6 5
4 5 4 3 3 3 3 3 4 4 4 4 4 4 3 3 3 4 4 4 4 5 5 5 5 5 5 5 4 4 4 5 5 4 4 4 4 4 4 5 4 4 4
3 4 5 3 3 3 3 4 4 4 4 5 5 5 6 4 4 4 4 5 5 5 5 5 5 5 5 4 4 5 5 5 4 4 4 4 4 4 4 4 4 4 3
3 3 3 3 3 3 3 3 4 4 5 5 5 5 8 5 4 4 5 5 5 4 4 4 5 5 4 4 4 5 5 5 5 4 4 4 4 4 4 4 4 3 3
3 3 3 3 3 4 4 3 4 4 4 4 4 4 4 4 4 5 5 5 4 4 4 4 4 5 5 5 5 5 5 5 5 5 4 4 4 4 4 4 5 4 4
3 3 3 3 3 3 3 3 4 4 4 4 4 4 4 4 4 5 5 4 4 4 5 5 5 6 6 6 6 6 6 7 7 6 6 5 5 4 4 4 4 4 4
2 2 3 3 3 3 3 4 4 4 4 4 4 4 4 4 4 5 4 4 4 4 5 6 5 6 7 7 7 7 8 9 9 7 5 4 5 5 5 5 4 4 4
2 2 2 2 2 3 3 4 4 4 4 4 4 4 4 4 5 4 4 4 4 4 5 5 6 6 7 7 8 8 9 9 9 8 5 4 4 4 4 4 4 4 4
Wind_Direction
105 95 85 70 71 80 86 96 97 87 86 81 66 50 49 25 350 241 215 204 224 232 219 203 223 229 239 240 233 235 246 248 265 283 285 291 290 289 295 285 282 277 275
125 115 109 92 83 82 85 77 77 82 83 79 69 58 46 24 4 342 289 280 250 256 245 227 232 246 246 244 238 240 248 248 259 278 290 283 280 278 276 279 289 287 278
122 120 115 109 101 98 90 72 67 71 63 53 58 43 21 352 321 311 304 292 266 257 256 250 244 242 250 252 251 248 257 268 257 265 280 283 285 286 287 289 287 286 285
132 132 138 144 136 115 92 75 70 74 72 49 39 4 322 307 296 308 304 292 292 282 267 254 246 243 242 243 250 246 252 260 261 263 272 280 281 281 276 285 295 290 290
130 135 141 138 127 121 117 109 84 72 18 245 259 282 280 263 275 311 305 297 295 293 281 269 262 262 264 258 260 250 246 251 258 263 269 277 273 272 270 273 281 291 287
143 149 133 131 133 139 153 144 149 267 262 249 244 250 261 271 294 295 295 280 279 282 283 281 278 271 274 276 275 272 263 252 253 258 266 264 266 267 274 281 282 291 290
159 164 156 158 159 165 177 181 218 237 244 253 254 257 259 270 290 292 294 293 276 273 275 277 280 280 286 273 277 279 275 270 264 261 261 263 266 261 262 270 270 274 275
173 176 167 166 182 189 193 219 242 245 240 244 251 260 268 275 286 292 295 292 279 271 269 267 269 267 270 270 265 267 265 266 265 265 256 258 263 255 242 255 264 279 281
182 182 184 185 200 209 221 235 243 248 257 257 254 257 265 277 282 291 299 279 276 277 280 276 273 266 278 284 277 272 277 275 274 270 274 276 276 275 272 267 270 279 284
189 191 203 197 203 216 224 237 244 238 245 266 271 264 261 265 280 289 298 281 284 292 293 286 285 285 287 291 279 269 272 274 276 279 279 278 273 267 267 250 244 260 279
179 191 210 206 208 213 221 235 234 242 250 264 273 276 272 273 283 283 287 287 284 290 295 296 291 294 290 290 289 273 274 281 274 270 271 268 268 259 254 255 251 248 263
177 195 210 212 213 212 207 232 231 226 243 259 269 282 275 269 274 275 278 284 292 285 286 286 290 297 295 296 294 290 291 296 282 273 274 270 266 268 272 270 273 272 266
184 199 208 209 205 203 207 225 235 224 237 255 259 268 277 270 271 277 282 287 292 291 286 292 300 304 304 300 294 294 294 286 277 273 271 273 275 274 282 288 288 285 287
193 204 206 199 208 218 229 227 229 231 236 251 261 268 276 278 272 270 276 286 291 293 294 296 302 304 304 299 296 292 285 275 278 270 274 281 287 284 283 284 287 293 296
202 209 207 205 210 224 236 238 239 239 236 242 244 249 264 273 277 283 289 285 286 282 296 294 292 293 290 289 288 285 280 280 283 281 279 286 290 291 292 290 284 286 284
205 207 206 207 214 221 234 260 257 251 262 261 260 260 265 273 283 286 289 291 293 296 294 279 278 279 280 281 284 288 286 280 275 277 273 272 274 278 285 290 284 275 274
206 207 205 208 216 220 225 234 258 271 266 265 268 271 272 277 281 286 290 292 292 293 280 271 274 278 279 279 279 280 280 280 276 274 272 271 272 274 275 277 278 277 273
211 216 213 213 217 221 226 232 238 251 269 276 275 274 278 279 282 285 288 292 289 285 267 270 275 279 279 279 278 277 279 280 276 270 268 268 267 268 271 271 271 270 271
212 214 211 215 220 224 228 232 238 246 255 267 279 283 284 284 282 282 283 268 265 269 271 271 272 275 275 273 273 272 273 274 272 269 266 264 263 265 268 268 269 270 271
217 219 216 215 218 222 228 231 237 244 253 259 263 267 276 278 275 279 272 264 262 264 269 272 273 274 272 269 268 267 270 272 270 267 267 263 262 263 266 268 267 265 264
211 215 219 223 221 222 228 233 238 243 250 256 259 266 269 252 253 258 262 262 261 263 267 268 270 273 270 268 264 263 264 268 267 265 267 264 262 266 265 263 264 263 265
203 208 209 215 223 227 234 233 237 243 249 255 262 269 274 264 254 258 261 264 266 263 261 262 267 270 267 265 264 262 263 267 267 266 264 260 259 261 264 266 265 261 260
200 207 214 217 222 236 244 239 238 242 248 253 259 261 261 258 259 260 264 270 272 273 271 266 268 272 270 271 266 260 257 259 263 267 264 259 257 256 257 260 261 257 257
196 205 215 221 223 227 235 241 243 246 248 253 258 261 262 263 264 267 269 273 272 274 274 273 270 271 272 278 275 270 267 268 266 259 252 252 255 257 257 260 261 255 254
196 206 217 223 227 235 240 245 250 253 254 253 257 262 266 266 268 270 271 271 270 270 272 276 280 279 276 277 279 276 276 276 275 267 251 245 245 245 249 253 257 255 252
200 209 222 230 236 243 247 253 256 256 256 258 258 258 262 265 267 271 272 271 272 273 275 278 279 281 281 281 279 279 281 279 277 275 261 244 242 244 243 248 249 246 241
Height
1467 1468 1469 1470 1471 1471 1473 1474 1475 1475 1476 1477 1477 1478 1478 1479 1480 1481 1482 1483 1484 1485 1486 1487 1487 1488 1488 1489 1489 1489 1489 1489 1487 1486 1487 1486 1486 1485 1484 1483 1482 1481 1480
1466 1466 1467 1468 1469 1469 1470 1471 1472 1473 1474 1474 1474 1475 1476 1476 1477 1478 1478 1479 1480 1481 1481 1482 1482 1483 1483 1484 1484 1484 1484 1484 1484 1482 1481 1481 1481 1480 1479 1478 1477 1476 1475
1464 1465 1466 1466 1466 1467 1468 1469 1470 1470 1471 1471 1472 1472 1473 1474 1474 1475 1475 1475 1476 1477 1477 1477 1478 1478 1478 1479 1479 1479 1479 1479 1479 1477 1476 1476 1476 1475 1474 1473 1472 1471 1470
1463 1463 1464 1464 1465 1465 1466 1467 1467 1468 1468 1468 1469 1470 1470 1470 1471 1471 1471 1472 1472 1472 1473 1474 1474 1474 1475 1475 1475 1474 1474 1474 1474 1473 1472 1471 1470 1470 1469 1467 1466 1466 1465
1461 1461 1462 1462 1463 1463 1464 1464 1465 1465 1465 1466 1466 1466 1467 1467 1467 1467 1467 1468 1468 1468 1469 1469 1470 1470 1471 1471 1470 1470 1470 1469 1469 1468 1467 1466 1465 1465 1464 1463 1461 1460 1459
1458 1459 1459 1460 1460 1461 1461 1462 1462 1462 1463 1463 1463 1463 1463 1463 1464 1464 1464 1464 1464 1464 1464 1464 1465 1465 1465 1465 1465 1465 1465 1465 1464 1463 1462 1461 1460 1460 1459 1458 1457 1455 1453
1456 1456 1457 1457 1458 1458 1459 1459 1459 1459 1460 1460 1460 1460 1460 1460 1460 1460 1460 1460 1460 1459 1459 1460 1460 1460 1460 1460 1459 1460 1459 1459 1459 1459 1457 1456 1455 1455 1454 1453 1452 1451 1449
1453 1454 1455 1455 1455 1455 1456 1456 1456 1456 1456 1456 1457 1457 1457 1457 1457 1456 1456 1456 1455 1455 1455 1455 1455 1455 1455 1455 1454 1453 1453 1453 1453 1453 1452 1451 1451 1450 1449 1448 1447 1445 1444
1450 1451 1452 1452 1452 1452 1452 1452 1453 1453 1453 1453 1453 1453 1453 1453 1454 1453 1453 1452 1451 1451 1451 1451 1450 1450 1450 1450 1449 1448 1447 1447 1447 1447 1446 1446 1445 1445 1444 1443 1442 1440 1438
1447 1448 1449 1449 1449 1449 1449 1449 1449 1449 1450 1450 1450 1450 1450 1450 1450 1450 1449 1448 1447 1447 1447 1446 1446 1445 1445 1445 1444 1443 1442 1441 1441 1440 1440 1439 1439 1438 1438 1438 1437 1435 1433
1444 1445 1445 1446 1446 1446 1446 1446 1446 1446 1446 1446 1446 1446 1447 1446 1446 1446 1445 1444 1444 1443 1442 1441 1441 1441 1440 1440 1439 1438 1437 1437 1435 1434 1433 1433 1433 1432 1432 1431 1431 1431 1429
1441 1441 1442 1442 1442 1442 1442 1442 1443 1443 1443 1443 1443 1443 1443 1443 1443 1442 1442 1441 1440 1439 1438 1437 1436 1436 1435 1435 1434 1433 1432 1432 1430 1429 1428 1427 1427 1426 1426 1425 1425 1425 1424
1437 1437 1438 1438 1439 1439 1439 1439 1439 1439 1439 1439 1438 1438 1438 1438 1438 1438 1437 1437 1436 1435 1434 1433 1432 1431 1430 1430 1429 1428 1427 1426 1425 1424 1423 1422 1422 1421 1421 1420 1419 1419 1418
1433 1433 1434 1434 1435 1435 1435 1435 1435 1435 1435 1435 1435 1434 1434 1434 1434 1433 1433 1433 1432 1431 1430 1429 1428 1427 1426 1425 1424 1424 1423 1422 1421 1420 1419 1418 1417 1416 1416 1415 1414 1413 1412
1429 1429 1430 1431 1431 1431 1432 1432 1431 1432 1431 1431 1431 1431 1430 1429 1429 1430 1429 1428 1427 1427 1426 1425 1423 1422 1421 1421 1420 1419 1418 1417 1416 1415 1414 1413 1412 1411 1411 1410 1410 1408 1407
1425 1425 1426 1427 1427 1427 1427 1428 1427 1428 1428 1427 1427 1427 1426 1426 1425 1425 1425 1424 1423 1423 1422 1420 1419 1418 1417 1416 1415 1414 1413 1413 1412 1411 1410 1409 1408 1407 1406 1406 1405 1404 1403
1421 1422 1422 1423 1423 1423 1423 1423 1423 1424 1424 1423 1423 1422 1422 1422 1421 1421 1420 1420 1419 1418 1417 1416 1415 1414 1413 1412 1411 1410 1409 1409 1408 1407 1406 1405 1404 1403 1402 1401 1400 1400 1399
1417 1418 1418 1419 1419 1419 1419 1419 1419 1419 1418 1418 1418 1418 1417 1417 1417 1416 1416 1415 1414 1414 1413 1412 1411 1410 1409 1408 1408 1407 1405 1404 1404 1403 1402 1401 1400 1399 1398 1397 1396 1396 1395
1413 1413 1414 1415 1415 1415 1415 1415 1415 1415 1414 1414 1413 1413 1413 1413 1412 1412 1411 1410 1409 1409 1408 1407 1407 1406 1405 1404 1403 1403 1402 1400 1399 1399 1398 1397 1396 1395 1394 1393 1393 1392 1391
1409 1410 1410 1411 1411 1411 1411 1411 1411 1410 1410 1410 1409 1409 1409 1408 1407 1407 1407 1406 1405 1404 1404 1403 1403 1402 1401 1400 1399 1398 1397 1396 1395 1394 1394 1393 1392 1391 1390 1389 1389 1388 1387
1405 1406 1406 1407 1407 1407 1407 1407 1407 1406 1406 1405 1405 1405 1405 1404 1403 1403 1402 1401 1401 1400 1399 1399 1398 1397 1397 1396 1395 1394 1393 1392 1391 1390 1389 1389 1388 1387 1386 1386 1385 1384 1384
1402 1402 1403 1403 1403 1403 1403 1403 1402 1402 1401 1401 1401 1401 1400 1400 1399 1398 1398 1397 1396 1396 1395 1394 1394 1393 1392 1391 1390 1389 1388 1387 1387 1386 1385 1385 1384 1383 1383 1382 1381 1381 1380
1398 1399 1399 1399 1399 1399 1399 1399 1398 1398 1397 1397 1396 1396 1396 1395 1395 1394 1393 1393 1392 1391 1391 1390 1389 1388 1387 1387 1386 1385 1384 1383 1383 1382 1381 1381 1380 1379 1379 1378 1378 1377 1376
1395 1395 1395 1396 1396 1395 1395 1395 1395 1394 1393 1393 1393 1392 1392 1391 1390 1390 1389 1388 1387 1387 1386 1385 1384 1383 1382 1382 1381 1380 1379 1379 1379 1378 1377 1376 1376 1375 1375 1375 1374 1374 1373
1392 1392 1392 1392 1392 1392 1391 1391 1391 1390 1390 1389 1389 1388 1387 1387 1386 1385 1384 1384 1383 1382 1381 1380 1379 1379 1378 1377 1376 1375 1375 1374 1374 1373 1373 1372 1372 1371 1371 1371 1370 1370 1370
1389 1389 1389 1389 1389 1388 1388 1387 1387 1386 1386 1385 1384 1384 1383 1383 1382 1381 1380 1379 1378 1377 1377 1376 1375 1374 1373 1372 1371 1371 1370 1370 1369 1369 1369 1368 1368 1367 1367 1367 1366 1366 1366